Total_Precipitation_Accumulation
1.60 1.62 1.60 1.55 1.51 1.51 1.55 1.49 1.35 1.25 1.12 1.01 0.93 0.93 0.93 0.87 0.85 0.92 0.95 1.00 1.11 1.15 1.10 1.12 1.17 1.25 1.37 1.43 1.56 1.68 1.88 2.05 2.06 1.71 1.44 1.33 1.39 1.46 1.52 1.49 1.43 1.34 1.26
1.41 1.43 1.47 1.33 1.25 1.26 1.25 1.22 1.14 1.12 1.08 1.01 0.96 0.94 0.87 0.81 0.82 0.83 0.83 0.82 0.89 0.95 0.98 1.03 0.98 1.03 1.16 1.26 1.39 1.49 1.63 1.79 1.92 1.82 1.56 1.45 1.43 1.49 1.58 1.60 1.41 1.27 1.18
1.14 1.23 1.31 1.21 1.12 1.11 1.07 1.05 1.07 1.06 1.04 0.99 0.95 0.88 0.81 0.79 0.81 0.81 0.77 0.77 0.75 0.77 0.86 0.94 0.97 1.06 1.14 1.24 1.38 1.42 1.51 1.56 1.77 1.77 1.58 1.54 1.52 1.52 1.66 1.59 1.37 1.36 1.07
1.00 1.01 1.07 1.09 1.06 1.02 1.01 1.00 0.94 0.91 0.90 0.85 0.79 0.77 0.76 0.73 0.68 0.66 0.66 0.69 0.73 0.74 0.76 0.81 0.88 1.02 1.13 1.27 1.33 1.41 1.54 1.65 1.75 1.82 1.75 1.72 1.69 1.67 1.73 1.76 1.59 1.43 1.20
1.02 1.01 1.00 1.00 0.95 0.95 0.98 0.95 0.84 0.81 0.74 0.70 0.69 0.67 0.67 0.64 0.58 0.59 0.64 0.65 0.75 0.80 0.82 0.80 0.77 0.85 1.00 1.10 1.15 1.34 1.61 1.78 1.80 1.84 1.82 1.83 1.79 1.85 1.76 1.68 1.65 1.50 1.27
1.08 1.10 1.06 1.05 0.99 0.94 0.94 0.92 0.84 0.83 0.77 0.69 0.71 0.67 0.61 0.51 0.53 0.55 0.57 0.65 0.74 0.79 0.87 0.85 0.73 0.71 0.75 0.81 0.88 1.02 1.27 1.54 1.73 1.81 1.78 1.77 1.73 1.78 1.77 1.68 1.69 1.68 1.50
1.07 1.03 1.07 1.08 0.99 0.90 0.85 0.93 0.91 0.89 0.80 0.73 0.72 0.68 0.62 0.53 0.49 0.47 0.48 0.56 0.69 0.79 0.87 0.88 0.73 0.63 0.75 0.85 0.85 0.84 0.92 1.12 1.44 1.69 1.74 1.63 1.72 1.80 1.87 1.86 1.77 1.77 1.67
1.01 0.96 0.96 0.98 0.98 0.91 0.87 0.89 0.88 0.88 0.87 0.78 0.72 0.72 0.72 0.53 0.48 0.47 0.48 0.58 0.71 0.75 0.77 0.82 0.87 0.87 0.77 0.78 0.83 0.96 1.13 1.24 1.32 1.36 1.55 1.59 1.60 1.63 1.63 1.67 1.71 1.73 1.58
0.89 0.89 0.84 0.80 0.79 0.77 0.75 0.78 0.86 0.88 0.88 0.77 0.71 0.76 0.74 0.57 0.48 0.46 0.49 0.60 0.70 0.71 0.64 0.63 0.67 0.73 0.70 0.76 0.92 1.17 1.38 1.55 1.41 1.37 1.45 1.60 1.59 1.44 1.30 1.44 1.70 1.79 1.60
0.74 0.68 0.67 0.69 0.69 0.71 0.73 0.77 0.75 0.82 0.84 0.71 0.64 0.66 0.61 0.51 0.45 0.43 0.49 0.56 0.66 0.67 0.69 0.66 0.69 0.69 0.70 0.85 1.03 1.35 1.57 1.69 1.53 1.44 1.54 1.67 1.60 1.48 1.42 1.50 1.72 1.73 1.60
0.57 0.53 0.57 0.58 0.59 0.59 0.68 0.71 0.70 0.70 0.75 0.72 0.65 0.60 0.54 0.43 0.39 0.41 0.43 0.45 0.53 0.62 0.68 0.75 0.80 0.80 0.75 0.86 1.05 1.29 1.51 1.59 1.55 1.50 1.51 1.54 1.59 1.60 1.50 1.48 1.53 1.53 1.54
0.50 0.49 0.50 0.49 0.42 0.44 0.60 0.62 0.62 0.69 0.67 0.66 0.70 0.66 0.53 0.43 0.33 0.29 0.30 0.34 0.41 0.61 0.72 0.76 0.79 0.81 0.81 0.94 1.07 1.30 1.51 1.66 1.58 1.46 1.36 1.32 1.33 1.38 1.36 1.24 1.20 1.20 1.26
0.50 0.54 0.49 0.43 0.41 0.40 0.47 0.50 0.51 0.59 0.57 0.53 0.56 0.55 0.47 0.40 0.29 0.20 0.20 0.25 0.36 0.49 0.64 0.79 0.80 0.77 0.90 1.18 1.36 1.50 1.67 1.75 1.61 1.39 1.31 1.22 1.16 1.14 1.11 1.13 1.11 1.06 1.01
0.53 0.55 0.51 0.48 0.45 0.37 0.36 0.34 0.35 0.38 0.41 0.47 0.49 0.47 0.44 0.40 0.28 0.22 0.24 0.27 0.34 0.43 0.56 0.73 0.88 0.96 1.10 1.37 1.60 1.73 1.79 1.72 1.51 1.32 1.22 1.15 1.07 1.06 1.08 1.05 1.08 1.07 1.08
0.50 0.47 0.45 0.42 0.40 0.36 0.29 0.24 0.23 0.24 0.26 0.33 0.37 0.39 0.39 0.33 0.24 0.24 0.26 0.28 0.33 0.40 0.49 0.70 0.91 1.04 1.24 1.45 1.58 1.59 1.56 1.48 1.41 1.26 1.15 1.10 1.08 1.07 1.07 1.04 1.06 1.01 1.03
0.44 0.44 0.38 0.36 0.33 0.28 0.27 0.25 0.19 0.19 0.20 0.22 0.24 0.25 0.26 0.26 0.22 0.20 0.23 0.29 0.36 0.44 0.53 0.77 0.97 1.09 1.25 1.36 1.46 1.44 1.36 1.29 1.23 1.18 1.12 1.06 1.04 1.03 1.06 1.01 0.97 0.96 1.00
0.35 0.36 0.33 0.28 0.26 0.28 0.29 0.34 0.31 0.23 0.20 0.20 0.19 0.21 0.22 0.23 0.22 0.22 0.23 0.29 0.35 0.43 0.58 0.81 1.00 1.14 1.24 1.27 1.31 1.29 1.24 1.18 1.09 1.05 1.03 0.99 0.95 0.95 0.94 0.90 0.85 0.85 0.85
0.27 0.26 0.25 0.24 0.25 0.26 0.23 0.21 0.26 0.33 0.33 0.29 0.22 0.20 0.20 0.21 0.23 0.26 0.28 0.33 0.44 0.50 0.67 0.84 0.97 1.03 1.11 1.17 1.17 1.17 1.13 1.06 0.98 0.96 1.00 0.98 0.90 0.84 0.79 0.77 0.76 0.73 0.71
0.23 0.23 0.20 0.19 0.19 0.18 0.15 0.12 0.15 0.21 0.27 0.30 0.27 0.23 0.22 0.22 0.25 0.30 0.34 0.42 0.54 0.61 0.71 0.81 0.86 0.91 0.96 1.01 1.02 1.00 0.99 0.96 0.91 0.88 0.88 0.89 0.87 0.78 0.70 0.64 0.61 0.54 0.53
0.19 0.20 0.19 0.16 0.14 0.13 0.12 0.11 0.12 0.15 0.20 0.23 0.26 0.25 0.24 0.32 0.39 0.38 0.36 0.40 0.49 0.58 0.66 0.73 0.74 0.74 0.76 0.81 0.79 0.74 0.75 0.77 0.76 0.78 0.77 0.77 0.78 0.73 0.65 0.58 0.52 0.51 0.51
0.17 0.16 0.16 0.14 0.11 0.10 0.10 0.12 0.12 0.13 0.17 0.21 0.21 0.19 0.27 0.35 0.44 0.41 0.40 0.43 0.48 0.53 0.56 0.59 0.63 0.63 0.60 0.60 0.62 0.61 0.63 0.70 0.72 0.72 0.71 0.69 0.67 0.61 0.54 0.49 0.47 0.45 0.43
0.17 0.16 0.14 0.13 0.12 0.10 0.09 0.10 0.10 0.10 0.13 0.17 0.17 0.16 0.26 0.32 0.41 0.42 0.44 0.47 0.50 0.54 0.54 0.53 0.51 0.53 0.56 0.57 0.58 0.59 0.62 0.64 0.66 0.68 0.67 0.63 0.61 0.57 0.51 0.45 0.43 0.44 0.43
0.19 0.18 0.17 0.17 0.16 0.12 0.10 0.09 0.08 0.09 0.10 0.12 0.15 0.18 0.23 0.33 0.41 0.47 0.51 0.53 0.53 0.51 0.47 0.47 0.50 0.51 0.51 0.50 0.49 0.51 0.52 0.53 0.59 0.64 0.66 0.59 0.53 0.48 0.45 0.43 0.42 0.44 0.44
0.17 0.14 0.13 0.15 0.17 0.15 0.13 0.12 0.10 0.10 0.10 0.13 0.16 0.18 0.23 0.30 0.37 0.46 0.54 0.58 0.61 0.60 0.53 0.50 0.50 0.50 0.47 0.45 0.45 0.45 0.45 0.46 0.47 0.51 0.52 0.48 0.42 0.39 0.37 0.38 0.37 0.38 0.38
0.15 0.14 0.13 0.14 0.14 0.12 0.11 0.11 0.12 0.14 0.15 0.16 0.18 0.19 0.22 0.24 0.31 0.39 0.46 0.52 0.57 0.61 0.61 0.61 0.58 0.52 0.46 0.41 0.38 0.38 0.45 0.46 0.41 0.39 0.44 0.41 0.34 0.33 0.34 0.33 0.33 0.33 0.33
0.13 0.13 0.13 0.13 0.13 0.11 0.11 0.11 0.11 0.11 0.12 0.15 0.17 0.18 0.18 0.21 0.27 0.31 0.34 0.37 0.42 0.50 0.56 0.63 0.64 0.55 0.44 0.38 0.37 0.39 0.37 0.31 0.26 0.28 0.37 0.38 0.33 0.30 0.28 0.28 0.27 0.28 0.30